| Date | Time | Temp. (oF) | Dew Point (oF) | Rel. Hum. (%) | Press. (in.) | Wind Dir. | Wind Speed (mph) | Hourly Rainfall (in.) |
|
|---|---|---|---|---|---|---|---|---|---|
| 1 | 09/13 | 00:00 | 75 | 73 | 96 | 30.19 | NNE | 4 | 0.00 |
| 2 | 09/12 | 23:00 | 75 | 73 | 95 | 30.19 | NE | 3 | 0.00 |
| 3 | 09/12 | 22:00 | 75 | 73 | 96 | 30.19 | ENE | 2 | 0.00 |
| 4 | 09/12 | 21:00 | 75 | 73 | 94 | 30.18 | ENE | 0 | 0.00 |
| 5 | 09/12 | 20:00 | 76 | 73 | 92 | 30.17 | E | 2 | 0.00 |
| 6 | 09/12 | 19:00 | 78 | 73 | 86 | 30.16 | NNE | 3 | 0.00 |
| 7 | 09/12 | 18:00 | 79 | 73 | 83 | 30.16 | W | 2 | 0.00 |
| 8 | 09/12 | 17:00 | 80 | 73 | 82 | 30.16 | NNE | 1 | 0.00 |
| 9 | 09/12 | 16:00 | 79 | 74 | 86 | 30.17 | N | 3 | 0.00 |
| 10 | 09/12 | 15:00 | 78 | 74 | 89 | 30.18 | ESE | 4 | 0.00 |
| 11 | 09/12 | 14:00 | 79 | 74 | 86 | 30.20 | NE | 2 | 0.00 |
| 12 | 09/12 | 13:00 | 78 | 74 | 90 | 30.20 | NNE | 3 | 0.00 |
| 13 | 09/12 | 12:00 | 76 | 74 | 94 | 30.21 | N | 3 | 0.00 |
| 14 | 09/12 | 11:00 | 75 | 73 | 96 | 30.21 | NW | 2 | 0.00 |
| 15 | 09/12 | 10:00 | 73 | 72 | 98 | 30.20 | WNW | 3 | 0.00 |
| 16 | 09/12 | 09:00 | 72 | 71 | 99 | 30.19 | NNW | 3 | 0.00 |
| 17 | 09/12 | 08:00 | 70 | 69 | 99 | 30.19 | NNW | 3 | 0.00 |
| 18 | 09/12 | 07:00 | 70 | 69 | 99 | 30.18 | NNW | 1 | 0.00 |
| 19 | 09/12 | 06:00 | 70 | 69 | 98 | 30.16 | NW | 1 | 0.00 |
| 20 | 09/12 | 05:00 | 70 | 69 | 99 | 30.15 | NW | 1 | 0.00 |
| 21 | 09/12 | 04:00 | 69 | 68 | 98 | 30.16 | NW | 1 | 0.00 |
| 22 | 09/12 | 03:00 | 69 | 68 | 98 | 30.15 | NW | 1 | 0.00 |
| 23 | 09/12 | 02:00 | 69 | 68 | 98 | 30.15 | NW | 1 | 0.01 |
| 24 | 09/12 | 01:00 | 69 | 68 | 98 | 30.16 | NW | 0 | 0.00 |